GW1804 Weather Reports


time (UTC)temp
F
wind
direction
speed
knots
gust
knots
rain 1hr
in
rain 24hr
in
rain mn
in
humidity
%
barometer
mb
20260506051032 59 0 0.0 0.0 0.00 0.20 0.20 77 1017.3
20260506050533 59 0 0.0 0.0 0.00 0.20 0.20 77 1017.3
20260506045032 59 0 0.0 1.7 0.00 0.20 0.20 78 1017.1
20260506044551 59 0 0.0 1.7 0.00 0.20 0.20 78 1017.0
20260506044034 59 0 0.0 1.7 0.00 0.20 0.20 78 1017.0
20260506043536 59 0 0.0 1.7 0.00 0.20 0.20 78 1016.9
20260506043049 59 0 0.0 2.6 0.00 0.20 0.20 78 1016.9
20260506042532 59 282 0.0 2.6 0.00 0.20 0.20 78 1016.9
20260506042033 59 306 0.9 2.6 0.00 0.20 0.20 78 1016.8
20260506041541 59 267 0.0 2.6 0.00 0.20 0.20 78 1016.7
20260506041032 59 236 0.9 2.6 0.00 0.20 0.20 78 1016.7
20260506040534 59 283 0.9 1.7 0.00 0.20 0.20 77 1016.6
20260506040058 59 259 0.0 2.6 0.00 0.20 0.20 77 1016.5
20260506035538 59 0 0.0 2.6 0.00 0.20 0.20 77 1016.5
20260506035036 59 300 0.9 4.3 0.00 0.20 0.20 77 1016.3
20260506034558 59 271 0.9 4.3 0.00 0.20 0.20 77 1016.3
20260506034034 59 295 1.7 4.3 0.00 0.20 0.20 77 1016.2
20260506033534 59 269 0.9 3.5 0.00 0.20 0.20 77 1016.1
20260506033047 59 303 0.9 3.5 0.00 0.20 0.20 76 1016.1
20260506032531 59 319 0.9 3.5 0.00 0.20 0.20 76 1016.0
20260506032033 59 309 1.7 3.5 0.00 0.20 0.20 75 1016.0
20260506031555 59 288 0.9 3.5 0.00 0.20 0.20 75 1016.0
20260506031036 59 306 0.9 3.5 0.00 0.20 0.20 75 1015.9
20260506030532 60 308 0.9 5.2 0.00 0.20 0.20 75 1015.9
20260506030045 60 296 0.9 5.2 0.00 0.20 0.20 75 1015.8
20260506025534 60 259 1.7 5.2 0.00 0.20 0.20 75 1015.8
20260506025035 60 294 0.9 3.5 0.00 0.20 0.20 74 1015.8
20260506024546 60 315 0.9 3.5 0.00 0.20 0.20 74 1015.7
20260506024035 60 267 1.7 5.2 0.00 0.20 0.20 74 1015.6
20260506023535 60 279 1.7 6.1 0.00 0.20 0.20 74 1015.6
20260506023048 60 266 1.7 6.1 0.00 0.20 0.20 73 1015.4
20260506022532 60 296 2.6 6.1 0.00 0.20 0.20 73 1015.4
20260506022034 60 306 1.7 4.3 0.00 0.20 0.20 73 1015.4
20260506021550 60 321 1.7 7.8 0.00 0.20 0.20 73 1015.4
20260506021033 61 270 2.6 7.8 0.00 0.20 0.20 72 1015.4
20260506020536 61 275 2.6 6.1 0.00 0.20 0.20 72 1015.3
20260506020047 61 300 2.6 6.1 0.00 0.20 0.20 72 1015.2
20260506015535 61 298 2.6 6.1 0.00 0.20 0.20 71 1015.2
20260506015032 62 306 2.6 7.0 0.00 0.20 0.20 70 1015.1
20260506014548 62 280 2.6 7.8 0.00 0.20 0.20 69 1015.1
20260506014036 62 257 3.5 7.8 0.00 0.20 0.20 69 1015.0
20260506013534 62 294 3.5 9.6 0.00 0.20 0.20 68 1015.0
20260506013045 63 297 3.5 9.6 0.00 0.20 0.20 68 1015.0
20260506012534 63 282 4.3 9.6 0.00 0.20 0.20 68 1015.0
20260506012035 63 275 3.5 7.8 0.00 0.20 0.20 69 1014.7
20260506011544 63 288 3.5 8.7 0.00 0.20 0.20 67 1014.8
20260506011032 63 274 4.3 8.7 0.00 0.20 0.20 67 1014.9
20260506010531 64 344 4.3 9.6 0.00 0.20 0.20 67 1014.8
20260506010046 64 325 4.3 9.6 0.00 0.20 0.20 67 1014.9
20260506005536 64 266 5.2 10.4 0.00 0.20 0.20 67 1015.0
20260506005031 64 279 5.2 10.4 0.00 0.20 0.20 68 1015.0
20260506004548 64 315 6.1 10.4 0.00 0.20 0.20 67 1014.9
20260506004032 64 302 4.3 10.4 0.00 0.20 0.20 67 1014.9
20260506003535 64 296 5.2 9.6 0.00 0.20 0.20 67 1014.8
20260506003049 65 306 5.2 9.6 0.00 0.20 0.20 66 1015.0
20260506002537 65 215 5.2 9.6 0.00 0.20 0.20 67 1014.9
20260506002034 65 298 4.3 9.6 0.00 0.20 0.20 67 1014.8
20260506001547 65 278 4.3 9.6 0.00 0.20 0.20 67 1014.7
20260506001031 65 272 5.2 10.4 0.00 0.20 0.20 67 1014.6
20260506000534 65 292 6.1 10.4 0.00 0.20 0.20 64 1014.8
20260506000046 65 288 4.3 10.4 0.00 0.20 0.20 67 1014.7
20260505235531 65 319 4.3 11.3 0.00 0.20 0.20 65 1014.7
20260505235034 65 281 5.2 11.3 0.00 0.20 0.20 65 1014.8
20260505234553 65 238 4.3 9.6 0.00 0.20 0.20 65 1014.8
20260505234032 65 250 4.3 11.3 0.00 0.20 0.20 64 1014.8
20260505233533 65 284 6.1 11.3 0.00 0.20 0.20 66 1014.8
20260505233044 65 303 4.3 11.3 0.00 0.20 0.20 67 1014.6
20260505232531 65 250 5.2 9.6 0.00 0.20 0.20 67 1014.7
20260505232032 65 296 6.1 10.4 0.00 0.20 0.20 66 1014.7
20260505231552 65 317 6.1 10.4 0.00 0.20 0.20 67 1014.7
20260505231033 66 281 4.3 9.6 0.00 0.20 0.20 69 1014.8
20260505230534 66 263 5.2 9.6 0.00 0.20 0.20 66 1014.8
20260505230048 66 244 4.3 13.0 0.00 0.20 0.20 66 1014.9
20260505225532 66 267 5.2 13.0 0.00 0.20 0.20 66 1014.9
20260505225031 66 251 4.3 10.4 0.00 0.20 0.20 66 1014.9
20260505224553 66 215 6.1 10.4 0.00 0.20 0.20 66 1014.9
20260505224032 66 272 4.3 10.4 0.00 0.20 0.20 67 1014.9
20260505223532 66 285 5.2 10.4 0.00 0.20 0.20 65 1015.0
20260505223054 66 256 4.3 9.6 0.00 0.20 0.20 65 1015.0
20260505222533 66 202 4.3 11.3 0.00 0.20 0.20 64 1015.1
20260505222036 66 221 6.1 11.3 0.00 0.20 0.20 62 1015.1
20260505221551 66 289 5.2 9.6 0.00 0.20 0.20 64 1015.1
20260505221032 67 261 6.1 8.7 0.00 0.20 0.20 63 1015.0
20260505220531 67 286 4.3 8.7 0.00 0.20 0.20 64 1015.1
20260505220047 66 260 4.3 12.2 0.00 0.20 0.20 64 1015.2
20260505215532 66 208 5.2 12.2 0.00 0.20 0.20 62 1015.2
20260505215032 66 247 6.1 10.4 0.00 0.20 0.20 64 1015.2
20260505214550 66 339 5.2 10.4 0.00 0.20 0.20 65 1015.3
20260505214032 66 331 4.3 10.4 0.00 0.20 0.20 64 1015.3
20260505213531 66 256 3.5 12.2 0.00 0.20 0.20 65 1015.3
20260505213053 66 305 4.3 12.2 0.00 0.20 0.20 65 1015.5
20260505212534 67 267 5.2 10.4 0.00 0.20 0.20 68 1015.5
20260505212032 66 237 5.2 9.6 0.00 0.20 0.20 66 1015.5
20260505211551 66 256 5.2 9.6 0.00 0.20 0.20 66 1015.4
20260505211033 66 304 6.1 9.6 0.00 0.20 0.20 64 1015.4
20260505210532 66 280 4.3 10.4 0.00 0.20 0.20 65 1015.5
20260505210048 66 276 3.5 10.4 0.00 0.20 0.20 66 1015.5
20260505205533 66 157 3.5 9.6 0.00 0.20 0.20 67 1015.6
20260505205033 66 292 4.3 8.7 0.00 0.20 0.20 66 1015.6
20260505204548 66 261 4.3 8.7 0.00 0.20 0.20 67 1015.6
20260505204032 66 302 4.3 10.4 0.00 0.20 0.20 66 1015.6
20260505203532 66 257 4.3 10.4 0.00 0.20 0.20 68 1015.6
20260505203048 66 265 4.3 9.6 0.00 0.20 0.20 67 1015.6
20260505202534 66 310 3.5 9.6 0.00 0.20 0.20 69 1015.6
20260505202035 65 229 6.1 9.6 0.00 0.20 0.20 67 1015.7
20260505201553 66 328 5.2 12.2 0.00 0.20 0.20 68 1015.6
20260505201032 66 256 7.0 12.2 0.00 0.20 0.20 67 1015.6
20260505200532 66 272 5.2 9.6 0.00 0.20 0.20 68 1015.6
20260505200051 66 277 4.3 9.6 0.00 0.20 0.20 69 1015.6
20260505195535 66 238 5.2 10.4 0.00 0.20 0.20 70 1015.6
20260505195031 65 314 4.3 10.4 0.00 0.20 0.20 71 1015.6
20260505194600 65 196 4.3 10.4 0.00 0.20 0.20 71 1015.6
20260505194032 65 246 5.2 9.6 0.00 0.20 0.20 70 1015.6
20260505193532 65 281 4.3 9.6 0.00 0.20 0.20 70 1015.7
20260505193046 65 238 3.5 8.7 0.00 0.20 0.20 71 1015.7
20260505192534 65 263 3.5 8.7 0.00 0.20 0.20 70 1015.7
20260505192032 65 248 3.5 9.6 0.00 0.20 0.20 71 1015.8
20260505191550 65 279 3.5 11.3 0.00 0.20 0.20 70 1015.7
20260505191035 64 317 3.5 11.3 0.00 0.20 0.20 70 1015.7
20260505190534 64 280 3.5 8.7 0.00 0.20 0.20 70 1015.8
20260505190046 64 274 2.6 8.7 0.00 0.20 0.20 71 1015.7
20260505185532 64 315 4.3 10.4 0.00 0.20 0.20 70 1015.7
20260505185032 64 298 5.2 10.4 0.00 0.20 0.20 71 1015.7
20260505184546 64 276 2.6 10.4 0.00 0.20 0.20 71 1015.7
20260505184032 63 279 4.3 9.6 0.00 0.20 0.20 72 1015.8
20260505183531 63 213 3.5 8.7 0.00 0.20 0.20 71 1015.8
20260505183045 63 296 3.5 9.6 0.00 0.20 0.20 71 1015.7
20260505182533 63 234 5.2 11.3 0.00 0.20 0.20 71 1015.7
20260505182031 63 246 4.3 11.3 0.00 0.20 0.20 70 1015.7
20260505181549 63 281 4.3 9.6 0.00 0.20 0.20 70 1015.7
20260505181031 63 295 5.2 9.6 0.00 0.20 0.20 72 1015.7
20260505180531 62 250 3.5 7.8 0.00 0.20 0.20 73 1015.6
20260505180044 62 302 3.5 7.0 0.00 0.20 0.20 74 1015.6
20260505175532 61 264 2.6 7.8 0.00 0.20 0.20 76 1015.5
20260505175032 61 231 4.3 7.8 0.00 0.20 0.20 74 1015.5
20260505174551 61 272 3.5 7.8 0.00 0.20 0.20 75 1015.4
20260505174031 61 275 4.3 7.8 0.00 0.20 0.20 75 1015.4
20260505173530 61 309 3.5 7.8 0.00 0.20 0.20 75 1015.4
20260505173046 61 312 3.5 7.0 0.00 0.20 0.20 75 1015.3
20260505172530 61 261 3.5 8.7 0.00 0.20 0.20 74 1015.3
20260505172030 62 231 3.5 8.7 0.00 0.20 0.20 75 1015.2
20260505171551 62 262 4.3 8.7 0.00 0.20 0.20 76 1015.1
20260505171036 62 253 3.5 9.6 0.00 0.20 0.20 77 1015.1
20260505170530 61 250 4.3 9.6 0.00 0.20 0.20 77 1015.2
20260505170048 61 315 3.5 13.0 0.00 0.20 0.20 77 1015.1
20260505165535 61 284 5.2 13.0 0.00 0.20 0.20 77 1015.0
20260505165035 61 315 4.3 13.0 0.00 0.20 0.20 77 1015.0
20260505164605 61 298 1.7 7.0 0.00 0.20 0.20 77 1014.9
20260505164033 60 277 2.6 7.0 0.00 0.20 0.20 76 1014.9
20260505163531 60 263 2.6 7.0 0.00 0.20 0.20 78 1014.8
20260505163052 60 275 2.6 7.8 0.00 0.20 0.20 80 1014.8
20260505162535 60 250 2.6 7.8 0.00 0.20 0.20 81 1014.8
20260505162036 59 293 2.6 7.8 0.00 0.20 0.20 83 1014.7
20260505161545 59 294 3.5 7.8 0.00 0.20 0.20 84 1014.7
20260505161035 59 320 2.6 7.0 0.00 0.20 0.20 86 1014.6
20260505160536 59 290 2.6 7.0 0.00 0.20 0.20 87 1014.6
20260505153048 57 307 2.6 6.1 0.00 0.20 0.20 92 1014.4
20260505152536 57 345 2.6 6.1 0.00 0.20 0.20 92 1014.4
20260505152036 57 326 0.9 4.3 0.00 0.20 0.20 93 1014.3
20260505151547 57 284 1.7 4.3 0.00 0.20 0.20 93 1014.4
20260505151036 57 318 1.7 4.3 0.00 0.20 0.20 93 1014.3
20260505150536 57 307 1.7 3.5 0.00 0.20 0.20 93 1014.2
20260505140535 56 0 0.0 0.9 0.04 0.20 0.20 93 1013.8
20260505130113 56 0 0.0 0.9 0.01 0.16 0.16 92 1013.3
20260505125035 56 0 0.0 2.6 0.01 0.16 0.16 92 1013.3
20260505124610 56 0 0.0 3.5 0.02 0.16 0.16 92 1013.2
20260505124035 56 0 0.0 3.5 0.03 0.16 0.16 92 1013.2
20260505123535 56 27 0.0 3.5 0.03 0.16 0.16 92 1013.2
20260505123103 56 12 0.9 4.3 0.03 0.16 0.16 92 1013.2
20260505122534 56 0 1.7 7.0 0.05 0.16 0.16 92 1013.1
20260505122036 56 303 2.6 7.0 0.06 0.16 0.16 92 1013.1
20260505121553 56 296 0.9 3.5 0.06 0.16 0.16 92 1013.1
20260505121036 56 281 1.7 5.2 0.06 0.16 0.16 92 1013.0
20260505120535 56 259 1.7 7.0 0.05 0.15 0.15 92 1013.0
20260505120106 56 301 2.6 7.0 0.05 0.15 0.15 92 1013.1
20260505115535 56 306 2.6 7.8 0.05 0.15 0.15 91 1013.1
20260505115039 56 292 3.5 7.8 0.05 0.15 0.15 91 1013.1
20260505114549 56 227 1.7 3.5 0.04 0.14 0.14 91 1013.1
20260505114036 56 0 0.9 2.6 0.03 0.13 0.13 91 1013.1
20260505113540 56 0 0.0 0.9 0.03 0.13 0.13 91 1013.1
20260505113059 56 0 0.0 0.9 0.03 0.13 0.13 91 1013.0
20260505112540 56 0 0.0 0.0 0.01 0.11 0.11 91 1013.0
20260505112035 56 0 0.0 0.0 0.01 0.10 0.10 91 1013.0
20260505111553 56 0 0.0 0.0 0.09 0.10 0.10 91 1013.0
20260505111034 56 0 0.0 0.0 0.09 0.10 0.10 91 1013.1
20260505110535 56 0 0.0 0.9 0.09 0.10 0.10 91 1013.1
20260505110111 56 0 0.0 0.9 0.10 0.10 0.10 90 1013.0
20260505102035 57 273 3.5 7.0 0.09 0.09 0.09 90 1013.3
20260505101553 57 23 0.0 2.6 0.01 0.01 0.01 89 1013.3
20260505101035 57 264 0.0 2.6 0.01 0.01 0.01 89 1013.3
20260505100535 57 298 0.9 3.5 0.01 0.01 0.01 89 1013.3
20260505100045 57 296 0.0 3.5 0.00 0.00 0.00 89 1013.4
20260505095534 57 296 0.0 2.6 0.00 0.00 0.00 89 1013.4
20260505095036 57 288 0.0 1.7 0.00 0.00 0.00 88 1013.4
20260505094556 57 288 0.0 1.7 0.00 0.00 0.00 88 1013.4
20260505094034 57 0 0.0 0.9 0.00 0.00 0.00 88 1013.5
20260505093535 57 0 0.0 2.6 0.00 0.00 0.00 88 1013.5
20260505093052 57 0 0.0 2.6 0.00 0.00 0.00 87 1013.5
20260505092537 57 288 0.9 6.1 0.00 0.00 0.00 87 1013.5
20260505092033 57 295 1.7 6.1 0.00 0.00 0.00 87 1013.6
20260505091552 57 299 2.6 5.2 0.00 0.00 0.00 87 1013.6
20260505091038 57 272 1.7 5.2 0.00 0.00 0.00 86 1013.6
20260505090535 57 278 1.7 6.1 0.00 0.00 0.00 86 1013.6
20260505090046 58 272 1.7 7.8 0.00 0.00 0.00 85 1013.7
20260505085535 58 246 3.5 7.8 0.00 0.00 0.00 85 1013.8
20260505085038 58 287 2.6 7.0 0.00 0.00 0.00 85 1013.8
20260505084553 58 300 0.9 3.5 0.00 0.00 0.00 84 1013.8
20260505084031 58 311 0.9 3.5 0.00 0.00 0.00 84 1013.8
20260505083538 58 306 0.9 3.5 0.00 0.00 0.00 84 1013.8
20260505083057 58 283 0.9 2.6 0.00 0.00 0.00 84 1013.9
20260505082535 58 0 0.9 3.5 0.00 0.00 0.00 83 1013.9
20260505082035 58 306 0.9 3.5 0.00 0.00 0.00 83 1013.9
20260505081554 59 300 1.7 4.3 0.00 0.00 0.00 83 1014.1
20260505081037 59 313 0.9 4.3 0.00 0.00 0.00 83 1014.1
20260505080538 59 313 1.7 6.1 0.00 0.00 0.00 82 1014.1
20260505080104 59 245 1.7 6.1 0.00 0.00 0.00 81 1014.1
20260505075535 59 311 2.6 5.2 0.00 0.00 0.00 81 1014.2
20260505075035 59 298 1.7 6.1 0.00 0.00 0.00 80 1014.2
20260505074549 58 290 2.6 6.1 0.00 0.00 0.00 80 1014.3
20260505074035 59 299 2.6 7.0 0.00 0.00 0.00 80 1014.3
20260505073535 59 309 1.7 7.0 0.00 0.00 0.00 81 1014.2
20260505073050 59 300 3.5 7.0 0.00 0.00 0.00 82 1014.3
20260505072535 59 311 1.7 6.1 0.00 0.00 0.00 84 1014.3
20260505072039 59 261 2.6 6.1 0.00 0.00 0.00 84 1014.4
20260505071552 59 316 2.6 6.1 0.00 0.00 0.00 85 1014.4
20260505071032 59 321 2.6 5.2 0.00 0.00 0.00 85 1014.4
20260505070538 59 275 1.7 5.2 0.00 0.00 0.00 85 1014.4
20260505070050 59 311 2.6 6.1 0.00 0.00 0.00 85 1014.5
20260505065534 59 309 2.6 6.1 0.00 0.00 0.00 85 1014.5
20260505065034 59 264 2.6 5.2 0.00 0.00 0.00 85 1014.5
20260505064546 59 259 1.7 5.2 0.00 0.00 0.00 85 1014.5
20260505064033 59 302 1.7 5.2 0.00 0.00 0.00 85 1014.6
20260505063536 59 264 1.7 4.3 0.00 0.00 0.00 86 1014.6
20260505063049 59 267 0.9 4.3 0.00 0.00 0.00 86 1014.6
20260505062536 59 308 1.7 4.3 0.00 0.00 0.00 86 1014.6
20260505062036 59 294 0.9 3.5 0.00 0.00 0.00 86 1014.6
20260505061546 59 275 0.9 4.3 0.00 0.00 0.00 86 1014.7
20260505061035 59 306 1.7 4.3 0.00 0.00 0.00 86 1014.7
20260505060538 59 269 2.6 4.3 0.00 0.00 0.00 86 1014.7
20260505060048 59 250 1.7 4.3 0.00 0.00 0.00 86 1014.8